User: anonymous   Login
Location: Pasadena, ca
(34.1243°N, 118.1037°W)
Time: 10:40:05
(UTC-07:00)
Language:

Tiangong 2 - Orbit

View from above orbital plane
View from above orbital plane
View from above satellite
View from above satellite

Ground track
Ground track

The orbit data is extracted from the following two-line orbital elements,

1 41765U 16057A   18228.12354167  .00002468  00000-0  35248-4 0  9998
2 41765  42.7855 343.9806 0008388 313.6928  43.8240 15.59229460109372
Epoch (UTC): 16 August 2018 02:57:54
Eccentricity: 0.0008388
inclination: 42.7855°
perigee height: 384 km
apogee height: 395 km
right ascension of ascending node: 343.9806°
argument of perigee: 313.6928°
revolutions per day: 15.59229460
mean anomaly at epoch: 43.8240°
orbit number at epoch: 10937

The dashed part of the orbit path shows where the satellite is in the earth's shadow,  

DLR